Weather History for Willimantic, CT

Change the Weather History Date:

Monday, January 21, 2013

  Actual Average Record
Temperature  
Mean Temperature 24 °F -  
Max Temperature 28 °F 34 °F 57 °F (2006)
Min Temperature 19 °F 12 °F -12 °F (1961)
Degree Days  
Heating Degree Days 42    
Moisture  
Dew Point 13 °F    
Average Humidity 64    
Maximum Humidity 86    
Minimum Humidity 38    
Precipitation  
Precipitation 0.00 in - - ()
Sea Level Pressure  
Sea Level Pressure 29.97 in    
Wind  
Wind Speed 6 mph (WNW)    
Max Wind Speed 14 mph    
Max Gust Speed 20 mph    
Visibility 8 miles    
Events Snow    
Averages and records for this station are not official NWS values.
T = Trace of Precipitation, MM = Missing Value Source: NWS Daily Summary

Daily Weather History Graph

Daily Weather History Graph

Search for Another Location

Airport:

Trip Planner

Search our weather history database for the weather conditions in past years. The results will help you decide how hot, cold, wet, or windy it might be!

Date:

Astronomy

Jan. 21, 2013 Rise Set
Actual Time 7:10 AM EST 4:50 PM EST
Civil Twilight 6:39 AM EST 5:20 PM EST
Nautical Twilight 6:05 AM EST 5:54 PM EST
Astronomical Twilight 5:32 AM EST 6:27 PM EST
Moon 12:28 PM EST (1/21) 2:35 AM EST (1/21)
Length of Visible Light 10h 41m
Length of Day
9h 40m
Waxing Gibbous, 75% of the Moon is Illuminated
Jan 21
Waxing Gibbous
Jan 26
Full
Feb 3
Last Quarter
Feb 10
New
Feb 17
First Quarter

Hourly Weather History & Observations

Time (EST) Temp. Windchill Dew Point Humidity Pressure Visibility Wind Dir Wind Speed Gust Speed Precip Events Conditions
12:52 AM 28.0 °F 17.0 °F 5.0 °F 38% 29.98 in 10.0 mi WNW 13.8 mph 19.6 mph N/A   Clear
1:52 AM 27.0 °F 16.7 °F 7.0 °F 43% 30.02 in 10.0 mi WNW 11.5 mph 18.4 mph N/A   Clear
2:52 AM 26.1 °F 15.6 °F 9.0 °F 49% 30.04 in 10.0 mi NW 11.5 mph 18.4 mph N/A   Clear
3:52 AM 24.1 °F 16.0 °F 9.0 °F 53% 30.05 in 10.0 mi NNW 6.9 mph - N/A   Clear
4:52 AM 23.0 °F 15.8 °F 8.1 °F 53% 30.06 in 10.0 mi NNW 5.8 mph - N/A   Clear
5:52 AM 21.9 °F 17.2 °F 6.1 °F 51% 30.08 in 10.0 mi NNW 3.5 mph - N/A   Clear
6:52 AM 19.9 °F 14.9 °F 7.0 °F 57% 30.08 in 10.0 mi NNW 3.5 mph - N/A   Clear
7:52 AM 19.9 °F - 10.0 °F 65% 30.10 in 10.0 mi Calm Calm - N/A   Scattered Clouds
8:52 AM 23.0 °F - 7.0 °F 50% 30.11 in 10.0 mi Calm Calm - N/A   Partly Cloudy
9:52 AM 24.1 °F 18.2 °F 5.0 °F 44% 30.11 in 10.0 mi NW 4.6 mph - N/A   Overcast
10:52 AM 25.0 °F - 5.0 °F 43% 30.09 in 10.0 mi Calm Calm - N/A   Overcast
11:52 AM 26.1 °F 20.5 °F 3.9 °F 39% 30.05 in 10.0 mi SW 4.6 mph - N/A   Overcast
12:52 PM 27.0 °F - 5.0 °F 39% 30.00 in 10.0 mi Calm Calm - N/A   Overcast
1:52 PM 27.0 °F 21.6 °F 6.1 °F 41% 29.99 in 10.0 mi SE 4.6 mph - N/A   Scattered Clouds
2:52 PM 28.0 °F 20.0 °F 8.1 °F 43% 29.97 in 10.0 mi SSW 8.1 mph - N/A   Overcast
3:52 PM 28.0 °F 20.8 °F 10.0 °F 47% 29.94 in 10.0 mi SSW 6.9 mph - N/A   Overcast
4:52 PM 26.1 °F 19.4 °F 17.1 °F 69% 29.92 in 4.0 mi South 5.8 mph - 0.00 in Snow Light Snow
5:32 PM 26.6 °F 22.6 °F 19.4 °F 74% 29.91 in 2.5 mi SSE 3.5 mph - 0.00 in Snow Light Snow
5:52 PM 25.0 °F - 19.9 °F 81% 29.93 in 1.8 mi Calm Calm - 0.00 in Snow Light Snow
6:32 PM 24.8 °F - 21.2 °F 86% 29.91 in 2.0 mi Calm Calm - 0.00 in Snow Light Snow
6:42 PM 24.8 °F - 21.2 °F 86% 29.90 in 2.5 mi Calm Calm - 0.00 in Snow Light Snow
6:50 PM 24.8 °F 20.5 °F 21.2 °F 86% 29.90 in 4.0 mi North 3.5 mph - 0.00 in Snow Light Snow
6:52 PM 25.0 °F 19.3 °F 21.0 °F 85% 29.91 in 4.0 mi North 4.6 mph - 0.00 in Snow Light Snow
7:29 PM 24.8 °F - 21.2 °F 86% 29.89 in 2.5 mi Calm Calm - 0.00 in Snow Light Snow
8:52 PM 25.0 °F - 21.0 °F 85% 29.88 in 4.0 mi Calm Calm - 0.00 in Snow Light Snow
9:18 PM 24.8 °F - 21.2 °F 86% 29.87 in 7.0 mi Calm Calm - 0.00 in   Overcast
9:52 PM 25.0 °F - 21.0 °F 85% 29.86 in 10.0 mi Calm Calm - 0.00 in   Overcast
10:26 PM 24.8 °F - 19.4 °F 80% 29.84 in 7.0 mi Calm Calm - 0.00 in Snow Light Snow
10:52 PM 24.1 °F - 19.9 °F 84% 29.83 in 10.0 mi Calm Calm - 0.00 in   Overcast
11:52 PM 24.1 °F - 19.9 °F 84% 29.79 in 10.0 mi Calm Calm - N/A   Overcast